Charleston, SC

3:55 PM EDT on August 19, 2017 (GMT -0400)
Charleston Executive

Weather History for KJZI - November, 2012

Change the Weather History Date:

Thursday, November 15, 2012

  Actual Average (KCHS) Record (KCHS)
Temperature  
Mean Temperature 48 °F -  
Max Temperature 51 °F 68 °F 83 °F (1955)
Min Temperature 44 °F 43 °F 27 °F (1969)
Degree Days  
Heating Degree Days 18    
Moisture  
Dew Point 46 °F    
Average Humidity 92    
Maximum Humidity 100    
Minimum Humidity 87    
Precipitation  
Precipitation 0.34 in - - ()
Sea Level Pressure  
Sea Level Pressure 30.21 in    
Wind  
Wind Speed 11 mph (North)    
Max Wind Speed 22 mph    
Max Gust Speed 32 mph    
Visibility 5 miles    
Events Rain , Thunderstorm    
Averages and records for this station are not official NWS values.
T = Trace of Precipitation, MM = Missing Value Source: NWS Daily Summary

Daily Weather History Graph

Daily Weather History Graph

Search for Another Location

Airport or City:

Trip Planner

Search our weather history database for the weather conditions in past years. The results will help you decide how hot, cold, wet, or windy it might be!

Date:

Astronomy

Nov. 15, 2012 Rise Set
Actual Time 6:50 AM EST 5:18 PM EST
Civil Twilight 6:24 AM EST 5:44 PM EST
Nautical Twilight 5:54 AM EST 6:14 PM EST
Astronomical Twilight 5:25 AM EST 6:43 PM EST
Moon 8:40 AM EST (11/15) 7:11 PM EST (11/15)
Length of Visible Light 11h 20m
Length of Day
10h 28m
Waxing Crescent, 5% of the Moon is Illuminated
Nov 15
Waxing Crescent
Nov 20
First Quarter
Nov 28
Full
Dec 6
Last Quarter
Dec 13
New

Hourly Weather History & Observations

Time (EST) Temp. Windchill Dew Point Humidity Pressure Visibility Wind Dir Wind Speed Gust Speed Precip Events Conditions
12:15 AM 50.0 °F - 46.4 °F 87% 30.23 in 6.0 mi North 9.2 mph - 0.00 in   Overcast
12:35 AM 50.0 °F - 46.4 °F 87% 30.23 in 6.0 mi North 9.2 mph - 0.00 in   Overcast
12:55 AM 50.0 °F - 46.4 °F 87% 30.22 in 5.0 mi NNE 10.4 mph - 0.00 in   Light Drizzle
1:15 AM 50.0 °F - 46.4 °F 87% 30.20 in 4.0 mi NNE 11.5 mph 17.3 mph 0.00 in   Overcast
1:35 AM 50.0 °F - 46.4 °F 87% 30.20 in 5.0 mi NNE 11.5 mph - 0.01 in Rain Light Rain
1:55 AM 50.0 °F - 46.4 °F 87% 30.19 in 4.0 mi NNE 10.4 mph - 0.01 in Rain Light Rain
2:15 AM 50.0 °F - 46.4 °F 87% 30.19 in 5.0 mi NNE 10.4 mph 17.3 mph 0.00 in   Overcast
2:35 AM 50.0 °F - 46.4 °F 87% 30.19 in 7.0 mi NNE 13.8 mph 18.4 mph 0.00 in   Overcast
2:55 AM 50.0 °F - 46.4 °F 87% 30.19 in 7.0 mi NNE 9.2 mph 16.1 mph 0.00 in   Overcast
3:15 AM 50.0 °F - 46.4 °F 87% 30.17 in 7.0 mi North 11.5 mph 16.1 mph 0.00 in   Overcast
3:55 AM 48.2 °F - 46.4 °F 93% 30.16 in 7.0 mi NNE 13.8 mph - 0.00 in   Overcast
4:15 AM 48.2 °F - 46.4 °F 93% 30.17 in 8.0 mi North 11.5 mph - 0.00 in   Overcast
4:55 AM 48.2 °F - 46.4 °F 93% 30.17 in 6.0 mi NNE 9.2 mph - 0.00 in   Overcast
5:15 AM 48.2 °F - 46.4 °F 93% 30.18 in 7.0 mi NNE 11.5 mph 17.3 mph 0.00 in   Overcast
5:35 AM 48.2 °F - 46.4 °F 93% 30.21 in 2.5 mi NNW 10.4 mph - 0.01 in Rain Heavy Rain
5:55 AM 48.2 °F - 46.4 °F 93% 30.22 in 1.5 mi North 9.2 mph - 0.04 in Rain Light Rain
6:15 AM 48.2 °F - 46.4 °F 93% 30.22 in 4.0 mi NNW 10.4 mph - 0.02 in Rain Light Rain
6:35 AM 48.2 °F - 46.4 °F 93% 30.22 in 4.0 mi North 12.7 mph - 0.04 in   Overcast
6:55 AM 48.2 °F - 46.4 °F 93% 30.22 in 5.0 mi North 10.4 mph 17.3 mph 0.04 in Rain , Thunderstorm Light Rain
7:15 AM 46.4 °F 41.1 °F 44.6 °F 93% 30.23 in 4.0 mi North 11.5 mph - 0.04 in Rain Light Rain
7:35 AM 46.4 °F 41.9 °F 44.6 °F 93% 30.25 in 8.0 mi NNW 9.2 mph 18.4 mph 0.06 in   Overcast
7:55 AM 46.4 °F 40.4 °F 44.6 °F 93% 30.26 in 2.5 mi NNW 13.8 mph 20.7 mph 0.08 in   Mostly Cloudy
8:15 AM 46.4 °F 40.1 °F 44.6 °F 93% 30.25 in 4.0 mi NNW 15.0 mph 21.9 mph 0.00 in   Overcast
8:35 AM 46.4 °F 39.5 °F 44.6 °F 93% 30.25 in 6.0 mi North 17.3 mph 25.3 mph 0.01 in   Overcast
8:55 AM 44.6 °F 36.1 °F 42.8 °F 93% 30.23 in 1.5 mi NNE 21.9 mph 32.2 mph 0.02 in   Overcast
9:15 AM 46.4 °F 39.5 °F 42.8 °F 87% 30.23 in 2.5 mi North 17.3 mph 21.9 mph 0.02 in   Overcast
9:35 AM 46.4 °F 41.9 °F 44.6 °F 93% 30.25 in 1.5 mi North 9.2 mph - 0.06 in Rain Rain
9:55 AM 48.2 °F - 46.4 °F 93% 30.24 in 1.5 mi North 11.5 mph - 0.10 in   Overcast
10:15 AM 48.2 °F - 46.4 °F 93% 30.22 in 6.0 mi NNE 10.4 mph - 0.01 in   Overcast
10:35 AM 50.0 °F - 48.2 °F 94% 30.22 in 10.0 mi North 10.4 mph - 0.01 in   Overcast
10:55 AM 50.0 °F - 46.4 °F 87% 30.21 in 10.0 mi North 10.4 mph - 0.01 in   Overcast
11:15 AM 50.0 °F - 48.2 °F 94% 30.20 in 10.0 mi North 9.2 mph - 0.00 in   Overcast
11:35 AM 50.0 °F - 48.2 °F 94% 30.19 in 7.0 mi North 5.8 mph - 0.00 in Rain Light Rain
11:55 AM 51.8 °F - 48.2 °F 88% 30.20 in 4.0 mi North 6.9 mph - 0.02 in Rain Light Rain
12:15 PM 51.8 °F - 48.2 °F 88% 30.20 in 3.0 mi North 9.2 mph - 0.01 in Rain Light Rain
12:35 PM 51.8 °F - 48.2 °F 88% 30.19 in 5.0 mi North 8.1 mph - 0.02 in Rain Light Rain
12:55 PM 51.8 °F - 50.0 °F 94% 30.20 in 4.0 mi NW 8.1 mph - 0.02 in   Light Drizzle
1:15 PM 51.8 °F - 48.2 °F 88% 30.19 in 5.0 mi NNW 8.1 mph - 0.00 in   Overcast
1:55 PM 51.8 °F - 48.2 °F 88% 30.18 in 6.0 mi North 11.5 mph - 0.00 in   Overcast
2:15 PM 51.8 °F - 50.0 °F 94% 30.18 in 6.0 mi NNW 10.4 mph - 0.00 in   Overcast
2:35 PM 51.8 °F - 48.2 °F 88% 30.18 in 7.0 mi North 10.4 mph - 0.00 in   Overcast
2:55 PM 51.8 °F - 48.2 °F 88% 30.18 in 8.0 mi North 11.5 mph - 0.00 in   Overcast
3:15 PM 51.8 °F - 48.2 °F 88% 30.17 in 8.0 mi NNW 9.2 mph - 0.00 in   Overcast
3:35 PM 51.8 °F - 48.2 °F 88% 30.18 in 8.0 mi North 10.4 mph 16.1 mph 0.00 in   Overcast
3:55 PM 51.8 °F - 48.2 °F 88% 30.19 in 7.0 mi North 6.9 mph - 0.00 in   Overcast
4:15 PM 51.8 °F - 48.2 °F 88% 30.19 in 6.0 mi NNW 9.2 mph - 0.00 in   Overcast
4:35 PM 48.2 °F - 46.4 °F 93% 30.19 in 1.0 mi NNW 9.2 mph - 0.00 in   Overcast
5:15 PM 46.4 °F 41.5 °F 46.4 °F 100% 30.20 in 1.0 mi NNW 10.4 mph - 0.00 in   Overcast
5:35 PM 46.4 °F 42.4 °F 46.4 °F 100% 30.20 in 1.2 mi NNW 8.1 mph - 0.00 in   Overcast
5:55 PM 46.4 °F 40.7 °F 46.4 °F 100% 30.21 in 1.2 mi NNW 12.7 mph - 0.00 in   Overcast
6:35 PM 46.4 °F 42.4 °F 44.6 °F 93% 30.22 in 1.2 mi NNW 8.1 mph - 0.00 in   Overcast
6:55 PM 46.4 °F 41.9 °F 44.6 °F 93% 30.22 in 1.5 mi NNW 9.2 mph - 0.00 in   Overcast
7:15 PM 46.4 °F 41.5 °F 44.6 °F 93% 30.22 in 1.5 mi NNW 10.4 mph - 0.00 in   Overcast
7:35 PM 46.4 °F 41.5 °F 44.6 °F 93% 30.22 in 1.0 mi NNW 10.4 mph - 0.00 in   Overcast
7:55 PM 46.4 °F 41.5 °F 44.6 °F 93% 30.22 in 1.0 mi NNW 10.4 mph - 0.00 in   Overcast
8:15 PM 46.4 °F 40.7 °F 44.6 °F 93% 30.22 in 1.0 mi NNW 12.7 mph - 0.00 in   Overcast
8:55 PM 46.4 °F 41.9 °F 44.6 °F 93% 30.22 in 1.5 mi NNW 9.2 mph - 0.00 in   Overcast
9:15 PM 46.4 °F 41.5 °F 44.6 °F 93% 30.23 in 2.5 mi NNW 10.4 mph 16.1 mph 0.00 in   Overcast
10:15 PM 46.4 °F 41.9 °F 44.6 °F 93% 30.23 in 4.0 mi NNW 9.2 mph - 0.00 in   Overcast
10:35 PM 46.4 °F 40.7 °F 44.6 °F 93% 30.22 in 4.0 mi NNW 12.7 mph - 0.00 in   Overcast
10:55 PM 46.4 °F 40.7 °F 46.4 °F 100% 30.21 in 5.0 mi North 12.7 mph - 0.00 in   Overcast
11:15 PM 46.4 °F 41.1 °F 44.6 °F 93% 30.21 in 5.0 mi North 11.5 mph 17.3 mph 0.00 in   Overcast
11:35 PM 46.4 °F 41.1 °F 44.6 °F 93% 30.21 in 5.0 mi North 11.5 mph 17.3 mph 0.00 in   Overcast
11:55 PM 46.4 °F 41.5 °F 44.6 °F 93% 30.22 in 5.0 mi North 10.4 mph - 0.00 in   Overcast